Time,TemperatureF,DewpointF,PressureIn,WindDirection,WindDirectionDegrees,WindSpeedMPH,WindSpeedGustMPH,Humidity,HourlyPrecipIn,Conditions,Clouds,dailyrainin,SolarRadiationWatts/m^2,SoftwareType,DateUTC
2013-12-23 00:07:00,30.5,29.0,30.06,West,276,8.0,-999.0,92,-99.99,,,0.00,0,weatherlink.com 1.10,2013-12-23 05:07:00,
2013-12-23 00:22:00,30.3,28.0,30.07,West,271,5.0,-999.0,92,-99.99,,,0.00,0,weatherlink.com 1.10,2013-12-23 05:22:00,
2013-12-23 00:37:00,30.2,28.0,30.07,West,266,5.0,-999.0,92,-99.99,,,0.01,0,weatherlink.com 1.10,2013-12-23 05:37:00,
2013-12-23 00:52:00,30.0,28.0,30.08,West,264,13.0,-999.0,90,-99.99,,,0.01,0,weatherlink.com 1.10,2013-12-23 05:52:00,
2013-12-23 01:07:00,29.9,27.0,30.08,West,266,9.0,-999.0,90,-99.99,,,0.01,0,weatherlink.com 1.10,2013-12-23 06:07:00,
2013-12-23 01:22:00,29.9,27.0,30.09,WNW,289,9.0,-999.0,90,-99.99,,,0.01,0,weatherlink.com 1.10,2013-12-23 06:22:00,
2013-12-23 01:37:00,29.7,27.0,30.09,WSW,256,7.0,-999.0,89,-99.99,,,0.01,0,weatherlink.com 1.10,2013-12-23 06:37:00,
2013-12-23 01:52:00,29.6,27.0,30.10,West,268,10.0,-999.0,89,-99.99,,,0.01,0,weatherlink.com 1.10,2013-12-23 06:52:00,
2013-12-23 02:07:00,29.5,27.0,30.11,West,267,4.0,-999.0,90,-99.99,,,0.01,0,weatherlink.com 1.10,2013-12-23 07:07:00,
2013-12-23 02:22:00,29.2,27.0,30.12,WSW,257,12.0,-999.0,90,-99.99,,,0.01,0,weatherlink.com 1.10,2013-12-23 07:22:00,
2013-12-23 02:37:00,29.1,27.0,30.12,WSW,241,8.0,-999.0,90,-99.99,,,0.01,0,weatherlink.com 1.10,2013-12-23 07:37:00,
2013-12-23 02:52:00,28.9,26.0,30.13,WSW,251,12.0,-999.0,90,-99.99,,,0.01,0,weatherlink.com 1.10,2013-12-23 07:52:00,
2013-12-23 03:07:00,28.7,26.0,30.13,West,262,10.0,-999.0,89,-99.99,,,0.01,0,weatherlink.com 1.10,2013-12-23 08:07:00,
2013-12-23 03:22:00,28.7,26.0,30.14,WNW,296,9.0,-999.0,88,-99.99,,,0.01,0,weatherlink.com 1.10,2013-12-23 08:22:00,
2013-12-23 03:37:00,28.6,26.0,30.14,West,267,7.0,-999.0,88,-99.99,,,0.01,0,weatherlink.com 1.10,2013-12-23 08:37:00,
2013-12-23 03:52:00,28.5,25.0,30.15,West,260,9.0,-999.0,86,-99.99,,,0.01,0,weatherlink.com 1.10,2013-12-23 08:52:00,
2013-12-23 04:07:00,28.4,25.0,30.16,WSW,251,9.0,-999.0,86,-99.99,,,0.01,0,weatherlink.com 1.10,2013-12-23 09:07:00,
2013-12-23 04:22:00,28.3,24.0,30.16,West,268,15.0,-999.0,85,-99.99,,,0.01,0,weatherlink.com 1.10,2013-12-23 09:22:00,
2013-12-23 04:37:00,28.3,25.0,30.16,WNW,283,8.0,-999.0,86,-99.99,,,0.01,0,weatherlink.com 1.10,2013-12-23 09:37:00,
2013-12-23 04:52:00,28.3,25.0,30.16,West,264,12.0,-999.0,86,-99.99,,,0.01,0,weatherlink.com 1.10,2013-12-23 09:52:00,
2013-12-23 05:07:00,28.2,25.0,30.17,West,267,6.0,-999.0,87,-99.99,,,0.01,0,weatherlink.com 1.10,2013-12-23 10:07:00,
2013-12-23 05:22:00,28.1,25.0,30.17,WNW,286,7.0,-999.0,88,-99.99,,,0.01,0,weatherlink.com 1.10,2013-12-23 10:22:00,
2013-12-23 05:37:00,28.1,25.0,30.17,WNW,298,10.0,-999.0,89,-99.99,,,0.01,0,weatherlink.com 1.10,2013-12-23 10:37:00,
2013-12-23 05:52:00,28.2,25.0,30.18,West,277,5.0,-999.0,89,-99.99,,,0.01,0,weatherlink.com 1.10,2013-12-23 10:52:00,
2013-12-23 06:07:00,28.3,26.0,30.19,WNW,299,6.0,-999.0,89,-99.99,,,0.01,0,weatherlink.com 1.10,2013-12-23 11:07:00,
2013-12-23 06:22:00,28.4,25.0,30.20,WSW,249,10.0,-999.0,88,-99.99,,,0.01,0,weatherlink.com 1.10,2013-12-23 11:22:00,
2013-12-23 06:37:00,28.2,25.0,30.21,West,272,10.0,-999.0,88,-99.99,,,0.01,0,weatherlink.com 1.10,2013-12-23 11:37:00,
2013-12-23 06:52:00,28.0,25.0,30.21,West,275,3.0,-999.0,87,-99.99,,,0.01,0,weatherlink.com 1.10,2013-12-23 11:52:00,
2013-12-23 07:07:00,27.5,24.0,30.23,West,267,7.0,-999.0,88,-99.99,,,0.01,0,weatherlink.com 1.10,2013-12-23 12:07:00,
2013-12-23 07:22:00,27.0,24.0,30.24,WNW,290,12.0,-999.0,88,-99.99,,,0.01,0,weatherlink.com 1.10,2013-12-23 12:22:00,
2013-12-23 07:37:00,27.1,24.0,30.25,West,271,10.0,-999.0,89,-99.99,,,0.01,0,weatherlink.com 1.10,2013-12-23 12:37:00,
2013-12-23 07:52:00,26.7,24.0,30.25,West,266,9.0,-999.0,88,-99.99,,,0.01,0,weatherlink.com 1.10,2013-12-23 12:52:00,
2013-12-23 08:07:00,26.4,24.0,30.27,WSW,257,13.0,-999.0,89,-99.99,,,0.01,0,weatherlink.com 1.10,2013-12-23 13:07:00,
2013-12-23 08:22:00,25.9,23.0,30.27,West,278,8.0,-999.0,89,-99.99,,,0.01,5,weatherlink.com 1.10,2013-12-23 13:22:00,
2013-12-23 08:37:00,25.9,23.0,30.28,West,266,8.0,-999.0,89,-99.99,,,0.01,12,weatherlink.com 1.10,2013-12-23 13:37:00,
2013-12-23 08:52:00,25.7,23.0,30.29,West,274,11.0,-999.0,89,-99.99,,,0.01,25,weatherlink.com 1.10,2013-12-23 13:52:00,
2013-12-23 09:07:00,25.8,23.0,30.29,West,264,10.0,-999.0,88,-99.99,,,0.01,53,weatherlink.com 1.10,2013-12-23 14:07:00,
2013-12-23 09:22:00,25.8,23.0,30.30,WSW,256,9.0,-999.0,87,-99.99,,,0.01,70,weatherlink.com 1.10,2013-12-23 14:22:00,
2013-12-23 09:37:00,25.9,23.0,30.31,WNW,287,5.0,-999.0,87,-99.99,,,0.01,100,weatherlink.com 1.10,2013-12-23 14:37:00,
2013-12-23 09:52:00,25.5,22.0,30.32,SW,223,12.0,-999.0,86,-99.99,,,0.01,260,weatherlink.com 1.10,2013-12-23 14:52:00,
2013-12-23 10:07:00,25.2,22.0,30.33,WSW,257,10.0,-999.0,86,-99.99,,,0.01,53,weatherlink.com 1.10,2013-12-23 15:07:00,
2013-12-23 10:22:00,24.5,21.0,30.34,WNW,287,6.0,-999.0,85,-99.99,,,0.01,44,weatherlink.com 1.10,2013-12-23 15:22:00,
2013-12-23 10:37:00,24.4,21.0,30.34,West,279,11.0,-999.0,86,-99.99,,,0.01,47,weatherlink.com 1.10,2013-12-23 15:37:00,
2013-12-23 10:52:00,23.9,21.0,30.35,West,271,8.0,-999.0,87,-99.99,,,0.01,72,weatherlink.com 1.10,2013-12-23 15:52:00,
2013-12-23 11:07:00,23.4,20.0,30.35,WSW,248,9.0,-999.0,86,-99.99,,,0.01,125,weatherlink.com 1.10,2013-12-23 16:07:00,
2013-12-23 11:22:00,23.6,20.0,30.36,SSW,212,11.0,-999.0,87,-99.99,,,0.01,171,weatherlink.com 1.10,2013-12-23 16:22:00,
2013-12-23 11:37:00,23.6,20.0,30.36,West,266,6.0,-999.0,87,-99.99,,,0.01,100,weatherlink.com 1.10,2013-12-23 16:37:00,
2013-12-23 11:52:00,23.5,20.0,30.35,SW,225,12.0,-999.0,87,-99.99,,,0.01,148,weatherlink.com 1.10,2013-12-23 16:52:00,
2013-12-23 12:07:00,24.4,21.0,30.35,SW,226,11.0,-999.0,87,-99.99,,,0.01,162,weatherlink.com 1.10,2013-12-23 17:07:00,
2013-12-23 12:22:00,24.0,20.0,30.34,WSW,249,6.0,-999.0,86,-99.99,,,0.01,130,weatherlink.com 1.10,2013-12-23 17:22:00,
2013-12-23 12:37:00,23.9,20.0,30.34,SW,221,11.0,-999.0,84,-99.99,,,0.01,179,weatherlink.com 1.10,2013-12-23 17:37:00,
2013-12-23 12:52:00,23.8,20.0,30.34,SW,214,12.0,-999.0,86,-99.99,,,0.01,142,weatherlink.com 1.10,2013-12-23 17:52:00,
2013-12-23 13:08:00,24.0,20.0,30.34,WSW,245,11.0,-999.0,86,-99.99,,,0.01,130,weatherlink.com 1.10,2013-12-23 18:08:00,
2013-12-23 13:23:00,23.9,20.0,30.35,WSW,256,13.0,-999.0,86,-99.99,,,0.01,169,weatherlink.com 1.10,2013-12-23 18:23:00,
2013-12-23 13:38:00,23.7,20.0,30.34,SW,235,7.0,-999.0,86,-99.99,,,0.01,214,weatherlink.com 1.10,2013-12-23 18:38:00,
2013-12-23 13:53:00,23.8,20.0,30.34,WSW,257,9.0,-999.0,84,-99.99,,,0.01,127,weatherlink.com 1.10,2013-12-23 18:53:00,
2013-12-23 14:08:00,24.3,20.0,30.34,SW,235,6.0,-999.0,84,-99.99,,,0.01,176,weatherlink.com 1.10,2013-12-23 19:08:00,
2013-12-23 14:23:00,23.5,19.0,30.34,SSW,204,11.0,-999.0,83,-99.99,,,0.01,200,weatherlink.com 1.10,2013-12-23 19:23:00,
2013-12-23 14:38:00,23.9,20.0,30.34,WSW,248,10.0,-999.0,85,-99.99,,,0.01,281,weatherlink.com 1.10,2013-12-23 19:38:00,
2013-12-23 14:53:00,23.4,20.0,30.34,WSW,258,9.0,-999.0,85,-99.99,,,0.01,121,weatherlink.com 1.10,2013-12-23 19:53:00,
2013-12-23 15:08:00,23.7,20.0,30.34,West,272,11.0,-999.0,85,-99.99,,,0.01,91,weatherlink.com 1.10,2013-12-23 20:08:00,
2013-12-23 15:23:00,23.7,20.0,30.34,WSW,237,13.0,-999.0,84,-99.99,,,0.01,79,weatherlink.com 1.10,2013-12-23 20:23:00,
2013-12-23 15:38:00,24.0,20.0,30.35,WSW,253,7.0,-999.0,84,-99.99,,,0.01,49,weatherlink.com 1.10,2013-12-23 20:38:00,
2013-12-23 15:53:00,24.3,20.0,30.35,WSW,248,4.0,-999.0,83,-99.99,,,0.01,74,weatherlink.com 1.10,2013-12-23 20:53:00,
2013-12-23 16:08:00,24.1,19.0,30.35,WSW,253,13.0,-999.0,82,-99.99,,,0.01,44,weatherlink.com 1.10,2013-12-23 21:08:00,
2013-12-23 16:23:00,24.0,19.0,30.36,West,260,7.0,-999.0,82,-99.99,,,0.01,49,weatherlink.com 1.10,2013-12-23 21:23:00,
2013-12-23 16:38:00,23.5,19.0,30.36,SW,235,14.0,-999.0,81,-99.99,,,0.01,37,weatherlink.com 1.10,2013-12-23 21:38:00,
2013-12-23 16:52:00,23.5,19.0,30.37,SW,220,6.0,-999.0,82,-99.99,,,0.01,16,weatherlink.com 1.10,2013-12-23 21:52:00,
2013-12-23 17:08:00,23.4,18.0,30.37,WSW,258,8.0,-999.0,81,-99.99,,,0.01,5,weatherlink.com 1.10,2013-12-23 22:08:00,
2013-12-23 17:23:00,23.1,19.0,30.38,West,272,11.0,-999.0,83,-99.99,,,0.01,0,weatherlink.com 1.10,2013-12-23 22:23:00,
2013-12-23 17:38:00,22.9,18.0,30.38,WSW,258,9.0,-999.0,81,-99.99,,,0.01,0,weatherlink.com 1.10,2013-12-23 22:38:00,
2013-12-23 17:53:00,22.2,17.0,30.38,West,260,7.0,-999.0,79,-99.99,,,0.01,0,weatherlink.com 1.10,2013-12-23 22:53:00,
2013-12-23 18:08:00,22.1,17.0,30.38,SW,231,9.0,-999.0,80,-99.99,,,0.01,0,weatherlink.com 1.10,2013-12-23 23:08:00,
2013-12-23 18:23:00,21.4,16.0,30.39,West,262,11.0,-999.0,81,-99.99,,,0.01,0,weatherlink.com 1.10,2013-12-23 23:23:00,
2013-12-23 18:38:00,20.6,16.0,30.40,WNW,283,8.0,-999.0,81,-99.99,,,0.01,0,weatherlink.com 1.10,2013-12-23 23:38:00,
2013-12-23 18:53:00,20.5,16.0,30.40,West,275,7.0,-999.0,81,-99.99,,,0.01,0,weatherlink.com 1.10,2013-12-23 23:53:00,
2013-12-23 19:08:00,20.0,14.0,30.40,WSW,249,11.0,-999.0,78,-99.99,,,0.01,0,weatherlink.com 1.10,2013-12-24 00:08:00,
2013-12-23 19:23:00,19.3,13.0,30.40,West,278,4.0,-999.0,76,-99.99,,,0.01,0,weatherlink.com 1.10,2013-12-24 00:23:00,
2013-12-23 19:38:00,18.6,11.0,30.41,WSW,256,6.0,-999.0,73,-99.99,,,0.01,0,weatherlink.com 1.10,2013-12-24 00:38:00,
2013-12-23 19:53:00,18.2,11.0,30.42,WSW,257,11.0,-999.0,72,-99.99,,,0.01,0,weatherlink.com 1.10,2013-12-24 00:53:00,
2013-12-23 20:08:00,17.6,9.0,30.42,WNW,290,6.0,-999.0,69,-99.99,,,0.01,0,weatherlink.com 1.10,2013-12-24 01:08:00,
2013-12-23 20:23:00,17.1,9.0,30.42,West,269,10.0,-999.0,69,-99.99,,,0.01,0,weatherlink.com 1.10,2013-12-24 01:23:00,
2013-12-23 20:38:00,16.6,9.0,30.42,West,278,13.0,-999.0,71,-99.99,,,0.01,0,weatherlink.com 1.10,2013-12-24 01:38:00,
2013-12-23 20:52:00,16.2,9.0,30.42,West,272,10.0,-999.0,72,-99.99,,,0.01,0,weatherlink.com 1.10,2013-12-24 01:52:00,
2013-12-23 21:08:00,15.9,9.0,30.42,WSW,256,6.0,-999.0,73,-99.99,,,0.01,0,weatherlink.com 1.10,2013-12-24 02:08:00,
2013-12-23 21:23:00,15.5,9.0,30.42,West,262,9.0,-999.0,75,-99.99,,,0.01,0,weatherlink.com 1.10,2013-12-24 02:23:00,
2013-12-23 21:38:00,15.2,10.0,30.42,WSW,253,13.0,-999.0,78,-99.99,,,0.01,0,weatherlink.com 1.10,2013-12-24 02:38:00,
2013-12-23 21:53:00,15.0,10.0,30.43,WSW,258,12.0,-999.0,80,-99.99,,,0.01,0,weatherlink.com 1.10,2013-12-24 02:53:00,
2013-12-23 22:08:00,14.4,9.0,30.43,WNW,303,15.0,-999.0,80,-99.99,,,0.01,0,weatherlink.com 1.10,2013-12-24 03:08:00,
2013-12-23 22:23:00,13.4,8.0,30.43,WSW,254,6.0,-999.0,80,-99.99,,,0.01,0,weatherlink.com 1.10,2013-12-24 03:23:00,
2013-12-23 22:38:00,12.9,8.0,30.43,WSW,256,6.0,-999.0,80,-99.99,,,0.01,0,weatherlink.com 1.10,2013-12-24 03:38:00,
2013-12-23 22:53:00,12.4,8.0,30.43,West,278,9.0,-999.0,81,-99.99,,,0.01,0,weatherlink.com 1.10,2013-12-24 03:53:00,
2013-12-23 23:08:00,11.9,7.0,30.43,West,276,5.0,-999.0,81,-99.99,,,0.01,0,weatherlink.com 1.10,2013-12-24 04:08:00,
2013-12-23 23:23:00,11.4,7.0,30.43,West,279,6.0,-999.0,82,-99.99,,,0.01,0,weatherlink.com 1.10,2013-12-24 04:23:00,
2013-12-23 23:38:00,11.2,7.0,30.43,West,276,6.0,-999.0,83,-99.99,,,0.01,0,weatherlink.com 1.10,2013-12-24 04:38:00,
2013-12-23 23:53:00,10.5,6.0,30.44,WSW,256,8.0,-999.0,82,-99.99,,,0.01,0,weatherlink.com 1.10,2013-12-24 04:53:00,